Eden Prairie, MN

6:10 AM CST on February 11, 2016 (GMT -0600)
Flying Cloud

Weather History for KFCM - January, 2011

Change the Weather History Date:

Sunday, January 23, 2011

  Actual Average Record
Temperature  
Mean Temperature -2 °F -  
Max Temperature 10 °F 21 °F 39 °F (2006)
Min Temperature -13 °F 7 °F -17 °F (2014)
Degree Days  
Heating Degree Days 66    
Moisture  
Dew Point -7 °F    
Average Humidity 71    
Maximum Humidity 87    
Minimum Humidity 58    
Precipitation  
Precipitation 0.00 in - - ()
Sea Level Pressure  
Sea Level Pressure 30.18 in    
Wind  
Wind Speed 6 mph (SSW)    
Max Wind Speed 17 mph    
Max Gust Speed -    
Visibility 10 miles    
Events      
Averages and records for this station are not official NWS values.
T = Trace of Precipitation, MM = Missing Value Source: NWS Daily Summary

Daily Weather History Graph

Daily Weather History Graph

Search for Another Location

Airport or City:

Trip Planner

Search our weather history database for the weather conditions in past years. The results will help you decide how hot, cold, wet, or windy it might be!

Date:

Astronomy

Jan. 23, 2011 Rise Set
Actual Time 7:42 AM CST 5:09 PM CST
Civil Twilight 7:10 AM CST 5:41 PM CST
Nautical Twilight 6:34 AM CST 6:17 PM CST
Astronomical Twilight 6:00 AM CST 6:51 PM CST
Moon 10:27 PM CST (1/23) 9:25 AM CST (1/23)
Length of Visible Light 10h 30m
Length of Day
9h 26m
Waning Gibbous, 80% of the Moon is Illuminated
Jan 23
Waning Gibbous
Jan 26
Last Quarter
Feb 2
New
Feb 11
First Quarter
Feb 18
Full

Hourly Weather History & Observations

Time (CST) Temp. Windchill Dew Point Humidity Pressure Visibility Wind Dir Wind Speed Gust Speed Precip Events Conditions
12:53 AM -7.1 °F -15.9 °F -11.9 °F 79% 30.32 in 10.0 mi NNW 3.5 mph - N/A   Clear
1:53 AM -8.0 °F -19.2 °F -13.0 °F 79% 30.33 in 10.0 mi NNW 4.6 mph - N/A   Clear
2:53 AM -8.0 °F -19.2 °F -13.0 °F 79% 30.35 in 10.0 mi NNW 4.6 mph - N/A   Clear
3:53 AM -7.1 °F - -11.9 °F 79% 30.35 in 10.0 mi Calm Calm - N/A   Clear
4:53 AM -8.0 °F - -13.0 °F 79% 30.34 in 10.0 mi Calm Calm - N/A   Clear
5:53 AM -9.9 °F - -15.0 °F 78% 30.32 in 10.0 mi Calm Calm - N/A   Clear
6:53 AM -11.9 °F -25.7 °F -17.0 °F 78% 30.33 in 10.0 mi WSW 5.8 mph - N/A   Clear
7:53 AM -13.0 °F - -18.0 °F 78% 30.32 in 10.0 mi Calm Calm - N/A   Clear
8:53 AM -11.0 °F -20.4 °F -14.1 °F 86% 30.32 in 10.0 mi South 3.5 mph - N/A   Clear
9:53 AM -9.0 °F - -11.9 °F 87% 30.30 in 10.0 mi Calm Calm - N/A   Clear
10:53 AM -4.0 °F -16.3 °F -9.9 °F 76% 30.28 in 10.0 mi South 5.8 mph - N/A   Clear
11:53 AM 1.0 °F -10.3 °F -6.0 °F 72% 30.25 in 10.0 mi South 5.8 mph - N/A   Scattered Clouds
12:53 PM 5.0 °F -5.6 °F -2.9 °F 70% 30.21 in 10.0 mi SW 5.8 mph - N/A   Scattered Clouds
1:53 PM 8.1 °F -7.7 °F -0.0 °F 70% 30.17 in 10.0 mi SSW 12.7 mph - N/A   Overcast
2:53 PM 9.0 °F -6.6 °F -0.9 °F 64% 30.13 in 10.0 mi SSW 12.7 mph - N/A   Overcast
3:53 PM 10.0 °F -5.9 °F -0.9 °F 61% 30.12 in 10.0 mi South 13.8 mph - N/A   Overcast
4:53 PM 10.0 °F -6.5 °F -2.0 °F 58% 30.08 in 10.0 mi South 15.0 mph - N/A   Mostly Cloudy
5:53 PM 10.0 °F -7.6 °F -0.9 °F 61% 30.05 in 10.0 mi South 17.3 mph - N/A   Partly Cloudy
6:53 PM 10.0 °F -5.2 °F -0.9 °F 61% 30.03 in 10.0 mi South 12.7 mph - N/A   Mostly Cloudy
7:53 PM 10.0 °F -6.5 °F -0.9 °F 61% 30.01 in 10.0 mi South 15.0 mph - N/A   Overcast
8:53 PM 10.0 °F -6.5 °F -0.9 °F 61% 29.98 in 10.0 mi South 15.0 mph - N/A   Overcast
9:53 PM 10.0 °F -6.5 °F -0.9 °F 61% 29.96 in 10.0 mi South 15.0 mph - N/A   Overcast
10:53 PM 10.0 °F -5.2 °F 1.0 °F 67% 29.93 in 10.0 mi South 12.7 mph - N/A   Partly Cloudy
11:53 PM 10.9 °F -4.1 °F 3.0 °F 70% 29.89 in 10.0 mi South 12.7 mph - N/A   Overcast